Starlink 2171

operational
NORAD ID: 47754 Int'l Des: 2021-017 Owner: SPXS Country: US Constellation: starlink
LEOCIRCULARSTARLINK_TYPE

Über Starlink 2171

Beschreibung wird geladen...

Live-Position

3D-Globus wird geladen...

Nächste Überflüge

Höhenverlauf

Altitude vs Time

uPlot chart will show altitude changes over time

Zweizeiliger Elementsatz

1 47754U 21017AJ 26035.83334490 .00170465 00000-0 19366-2 0 9998
2 47754 53.0493 330.1441 0008906 63.5655 345.0180 15.61234672 5904
Epoch: 4. Feb. 2026 • Age: 9 hours

Aktueller Status

Höhe 381.8 km
Geschwindigkeit 7.68 km/s
Subsatellitenpunkt 1.05°N, 118.47°E
Startdatum 4. März 2021
Alter 4.9 years
Typ internet

Technische Details

Klassifizierung Payload
Masse 260.00 kg
Trockenmasse 248.00 kg
Gesamtmasse 260.00 kg
Länge 0.20 m
Durchmesser 2.80 m
Spannweite 9.00 m
Form Box + pan
Hersteller SPXS
Bus-Typ Starlink
Phasenstatus In Orbit
Besitzer/Staat SPXS/US

Große Konstellationen

Loading constellations...